| time (UTC) | temp F | wind direction | speed MPH | gust MPH | rain 1hr in | rain 24hr in | rain mn in | humidity % | barometer mb |
| 20260510093104 | 50 | 355 | 0.0 | 2.0 | 0.00 | 0.27 | 0.01 | 96 | 1012.2 |
| 20260510092606 | 50 | 354 | 0.0 | 1.0 | 0.00 | 0.27 | 0.01 | 96 | 1012.2 |
| 20260510092105 | 50 | 354 | 1.0 | 2.0 | 0.00 | 0.27 | 0.01 | 96 | 1012.3 |
| 20260510091105 | 49 | 354 | 0.0 | 1.0 | 0.00 | 0.27 | 0.01 | 96 | 1012.2 |
| 20260510090605 | 49 | 355 | 0.0 | 0.0 | 0.00 | 0.27 | 0.01 | 96 | 1012.4 |
| 20260510090105 | 49 | 355 | 0.0 | 0.0 | 0.00 | 0.27 | 0.01 | 96 | 1012.4 |
| 20260510085604 | 49 | 355 | 0.0 | 0.0 | 0.00 | 0.27 | 0.01 | 96 | 1012.5 |
| 20260510084605 | 50 | 355 | 0.0 | 2.0 | 0.01 | 0.27 | 0.01 | 96 | 1012.6 |
| 20260510084104 | 50 | 355 | 2.0 | 3.0 | 0.01 | 0.27 | 0.01 | 96 | 1012.6 |
| 20260510083605 | 50 | 352 | 1.0 | 2.0 | 0.01 | 0.27 | 0.01 | 96 | 1012.7 |
| 20260510082606 | 50 | 352 | 0.0 | 0.0 | 0.01 | 0.27 | 0.01 | 96 | 1012.9 |
| 20260510081605 | 50 | 352 | 0.0 | 0.0 | 0.01 | 0.27 | 0.01 | 96 | 1012.9 |
| 20260510080604 | 50 | 352 | 0.0 | 1.0 | 0.01 | 0.27 | 0.01 | 96 | 1013.0 |
| 20260510075604 | 50 | 352 | 0.0 | 2.0 | 0.01 | 0.27 | 0.01 | 96 | 1013.2 |
| 20260510075105 | 50 | 352 | 0.0 | 0.0 | 0.00 | 0.27 | 0.00 | 96 | 1013.3 |
| 20260510074606 | 50 | 352 | 0.0 | 0.0 | 0.00 | 0.27 | 0.00 | 96 | 1013.3 |
| 20260510074106 | 50 | 352 | 0.0 | 0.0 | 0.00 | 0.27 | 0.00 | 96 | 1013.5 |
| 20260510073604 | 50 | 352 | 0.0 | 0.0 | 0.00 | 0.27 | 0.00 | 96 | 1013.4 |
| 20260510073105 | 50 | 352 | 0.0 | 0.0 | 0.00 | 0.27 | 0.00 | 96 | 1013.4 |
| 20260510072604 | 50 | 352 | 0.0 | 2.0 | 0.00 | 0.27 | 0.00 | 96 | 1013.4 |
| 20260510072104 | 50 | 352 | 0.0 | 2.0 | 0.00 | 0.28 | 0.00 | 96 | 1013.4 |
| 20260510071605 | 50 | 352 | 0.0 | 2.0 | 0.00 | 0.28 | 0.00 | 96 | 1013.4 |
| 20260510071104 | 50 | 349 | 0.0 | 2.0 | 0.00 | 0.28 | 0.00 | 96 | 1013.5 |
| 20260510070104 | 49 | 290 | 1.0 | 3.0 | 0.00 | 0.30 | 0.00 | 96 | 1013.4 |
| 20260510065604 | 48 | 274 | 0.0 | 0.0 | 0.00 | 0.30 | 0.00 | 96 | 1013.1 |
| 20260510065105 | 48 | 274 | 0.0 | 0.0 | 0.00 | 0.30 | 0.00 | 95 | 1012.9 |
| 20260510064605 | 48 | 274 | 0.0 | 0.0 | 0.00 | 0.30 | 0.00 | 96 | 1012.8 |
| 20260510064105 | 47 | 274 | 0.0 | 0.0 | 0.00 | 0.30 | 0.00 | 95 | 1012.7 |
| 20260510063604 | 47 | 274 | 0.0 | 0.0 | 0.00 | 0.30 | 0.00 | 95 | 1012.8 |
| 20260510063104 | 47 | 274 | 0.0 | 0.0 | 0.00 | 0.30 | 0.00 | 95 | 1012.8 |
| 20260510062104 | 48 | 274 | 0.0 | 0.0 | 0.00 | 0.30 | 0.00 | 95 | 1012.9 |
| 20260510061605 | 48 | 274 | 0.0 | 0.0 | 0.00 | 0.30 | 0.00 | 95 | 1012.9 |
| 20260510061105 | 48 | 274 | 0.0 | 0.0 | 0.00 | 0.30 | 0.00 | 95 | 1013.1 |
| 20260510060604 | 48 | 274 | 0.0 | 0.0 | 0.00 | 0.30 | 0.00 | 95 | 1013.1 |
| 20260510060104 | 48 | 274 | 0.0 | 0.0 | 0.00 | 0.30 | 0.00 | 95 | 1013.1 |
| 20260510055104 | 48 | 274 | 0.0 | 0.0 | 0.00 | 0.30 | 0.00 | 95 | 1013.0 |
| 20260510053604 | 48 | 274 | 0.0 | 2.0 | 0.00 | 0.30 | 0.00 | 95 | 1012.8 |
| 20260510053105 | 48 | 274 | 1.0 | 2.0 | 0.00 | 0.30 | 0.00 | 95 | 1012.5 |
| 20260510052604 | 49 | 274 | 0.0 | 0.0 | 0.00 | 0.30 | 0.00 | 95 | 1012.3 |
| 20260510052105 | 49 | 274 | 0.0 | 0.0 | 0.00 | 0.30 | 0.00 | 95 | 1012.3 |
| 20260510051605 | 49 | 274 | 0.0 | 0.0 | 0.00 | 0.30 | 0.00 | 95 | 1012.3 |
| 20260510051105 | 49 | 274 | 0.0 | 0.0 | 0.00 | 0.30 | 0.00 | 95 | 1012.3 |
| 20260510050604 | 49 | 274 | 0.0 | 0.0 | 0.00 | 0.30 | 0.00 | 95 | 1012.3 |
| 20260510050104 | 49 | 274 | 0.0 | 3.0 | 0.00 | 0.30 | 0.00 | 95 | 1012.4 |
| 20260510045605 | 49 | 274 | 0.0 | 3.0 | 0.00 | 0.30 | 0.00 | 95 | 1012.5 |
| 20260510045105 | 49 | 271 | 1.0 | 5.0 | 0.00 | 0.30 | 0.00 | 95 | 1012.6 |
| 20260510044605 | 48 | 287 | 0.0 | 0.0 | 0.00 | 0.30 | 0.00 | 95 | 1012.7 |
| 20260510043604 | 48 | 287 | 0.0 | 0.0 | 0.00 | 0.30 | 0.00 | 95 | 1012.6 |
| 20260510043106 | 49 | 287 | 0.0 | 0.0 | 0.00 | 0.30 | 0.00 | 95 | 1012.5 |
| 20260510042605 | 49 | 287 | 0.0 | 0.0 | 0.00 | 0.30 | 0.00 | 95 | 1012.5 |
| 20260510042105 | 49 | 287 | 0.0 | 0.0 | 0.00 | 0.30 | 0.00 | 95 | 1012.5 |
| 20260510041105 | 49 | 287 | 0.0 | 0.0 | 0.00 | 0.30 | 0.00 | 95 | 1012.5 |
| 20260510040605 | 49 | 287 | 0.0 | 0.0 | 0.00 | 0.30 | 0.00 | 95 | 1012.4 |
| 20260510040105 | 49 | 287 | 0.0 | 0.0 | 0.00 | 0.30 | 0.00 | 95 | 1012.2 |
| 20260510035605 | 49 | 287 | 0.0 | 0.0 | 0.00 | 0.30 | 0.30 | 95 | 1012.2 |
| 20260510035105 | 49 | 287 | 0.0 | 0.0 | 0.00 | 0.30 | 0.30 | 95 | 1012.2 |
| 20260510034605 | 49 | 287 | 0.0 | 2.0 | 0.00 | 0.30 | 0.30 | 95 | 1012.2 |
| 20260510034105 | 49 | 287 | 1.0 | 3.0 | 0.00 | 0.30 | 0.30 | 95 | 1012.2 |
| 20260510033605 | 48 | 285 | 1.0 | 3.0 | 0.00 | 0.30 | 0.30 | 95 | 1012.1 |
| 20260510033104 | 48 | 281 | 0.0 | 0.0 | 0.00 | 0.30 | 0.30 | 95 | 1012.2 |
| 20260510032604 | 49 | 280 | 0.0 | 0.0 | 0.00 | 0.30 | 0.30 | 95 | 1012.2 |
| 20260510031604 | 49 | 281 | 0.0 | 0.0 | 0.00 | 0.30 | 0.30 | 94 | 1012.3 |
| 20260510031104 | 49 | 280 | 0.0 | 0.0 | 0.00 | 0.30 | 0.30 | 95 | 1012.2 |
| 20260510030105 | 49 | 280 | 0.0 | 0.0 | 0.00 | 0.30 | 0.30 | 94 | 1012.3 |
| 20260510025605 | 49 | 280 | 0.0 | 0.0 | 0.00 | 0.30 | 0.30 | 94 | 1012.3 |
| 20260510025105 | 49 | 281 | 0.0 | 0.0 | 0.00 | 0.30 | 0.30 | 95 | 1012.2 |
| 20260510024605 | 49 | 281 | 0.0 | 0.0 | 0.00 | 0.31 | 0.30 | 94 | 1012.4 |
| 20260510024106 | 49 | 281 | 0.0 | 0.0 | 0.00 | 0.31 | 0.30 | 94 | 1012.4 |
| 20260510023105 | 49 | 281 | 0.0 | 0.0 | 0.00 | 0.31 | 0.30 | 94 | 1012.6 |
| 20260510022605 | 49 | 280 | 0.0 | 0.0 | 0.00 | 0.31 | 0.30 | 94 | 1012.4 |
| 20260510022104 | 49 | 280 | 0.0 | 0.0 | 0.00 | 0.31 | 0.30 | 94 | 1012.3 |
| 20260510021604 | 49 | 281 | 0.0 | 0.0 | 0.00 | 0.31 | 0.30 | 94 | 1012.2 |
| 20260510021105 | 50 | 281 | 0.0 | 0.0 | 0.00 | 0.31 | 0.30 | 94 | 1012.1 |
| 20260510020106 | 50 | 280 | 0.0 | 0.0 | 0.00 | 0.31 | 0.30 | 94 | 1012.2 |
| 20260510015605 | 50 | 281 | 0.0 | 0.0 | 0.00 | 0.31 | 0.30 | 94 | 1012.2 |
| 20260510015104 | 50 | 281 | 0.0 | 0.0 | 0.00 | 0.31 | 0.30 | 94 | 1012.2 |
| 20260510014606 | 50 | 281 | 0.0 | 0.0 | 0.00 | 0.31 | 0.30 | 94 | 1012.2 |
| 20260510014105 | 50 | 281 | 0.0 | 0.0 | 0.00 | 0.31 | 0.30 | 94 | 1012.2 |
| 20260510013605 | 50 | 281 | 0.0 | 0.0 | 0.00 | 0.31 | 0.30 | 94 | 1012.3 |
| 20260510012605 | 51 | 281 | 0.0 | 0.0 | 0.00 | 0.31 | 0.30 | 93 | 1012.1 |
| 20260510012105 | 51 | 281 | 0.0 | 0.0 | 0.00 | 0.31 | 0.30 | 94 | 1012.1 |
| 20260510011605 | 51 | 281 | 0.0 | 0.0 | 0.00 | 0.31 | 0.30 | 93 | 1012.0 |
| 20260510010605 | 52 | 281 | 0.0 | 0.0 | 0.00 | 0.31 | 0.30 | 93 | 1011.8 |
| 20260510010106 | 52 | 281 | 0.0 | 1.0 | 0.00 | 0.31 | 0.30 | 93 | 1011.9 |
| 20260510005605 | 52 | 280 | 0.0 | 0.0 | 0.00 | 0.31 | 0.30 | 93 | 1011.8 |
| 20260510005105 | 52 | 280 | 0.0 | 0.0 | 0.00 | 0.31 | 0.30 | 93 | 1011.6 |
| 20260510004606 | 52 | 280 | 0.0 | 0.0 | 0.00 | 0.31 | 0.30 | 93 | 1011.6 |
| 20260510003605 | 53 | 280 | 1.0 | 3.0 | 0.00 | 0.31 | 0.30 | 93 | 1011.7 |
| 20260510002607 | 53 | 265 | 0.0 | 0.0 | 0.00 | 0.31 | 0.30 | 93 | 1011.5 |
| 20260510002105 | 53 | 265 | 0.0 | 0.0 | 0.00 | 0.31 | 0.30 | 93 | 1011.5 |
| 20260510001106 | 53 | 272 | 0.0 | 2.0 | 0.00 | 0.31 | 0.30 | 93 | 1011.4 |
| 20260510000605 | 54 | 214 | 0.0 | 3.0 | 0.00 | 0.31 | 0.30 | 93 | 1011.4 |
| 20260510000104 | 54 | 199 | 1.0 | 3.0 | 0.00 | 0.31 | 0.30 | 93 | 1011.4 |
| 20260509235605 | 54 | 196 | 2.0 | 5.0 | 0.00 | 0.31 | 0.30 | 93 | 1011.3 |
| 20260509235104 | 54 | 252 | 1.0 | 2.0 | 0.00 | 0.31 | 0.30 | 93 | 1011.2 |
| 20260509234606 | 54 | 198 | 1.0 | 3.0 | 0.00 | 0.31 | 0.30 | 93 | 1011.3 |
| 20260509234105 | 54 | 200 | 1.0 | 3.0 | 0.00 | 0.31 | 0.30 | 93 | 1011.2 |
| 20260509233605 | 54 | 201 | 2.0 | 5.0 | 0.00 | 0.31 | 0.30 | 93 | 1011.2 |
| 20260509233104 | 54 | 208 | 1.0 | 2.0 | 0.00 | 0.31 | 0.30 | 93 | 1011.2 |
| 20260509232605 | 54 | 209 | 2.0 | 7.0 | 0.00 | 0.31 | 0.30 | 93 | 1011.2 |
| 20260509232104 | 55 | 210 | 1.0 | 6.0 | 0.00 | 0.31 | 0.30 | 94 | 1011.1 |
| 20260509231605 | 55 | 194 | 2.0 | 6.0 | 0.00 | 0.31 | 0.30 | 94 | 1011.2 |
| 20260509231105 | 55 | 206 | 2.0 | 10.0 | 0.00 | 0.31 | 0.30 | 94 | 1011.3 |
| 20260509230604 | 55 | 201 | 4.0 | 8.0 | 0.00 | 0.31 | 0.30 | 94 | 1011.3 |
| 20260509230106 | 55 | 189 | 1.0 | 3.0 | 0.00 | 0.31 | 0.30 | 94 | 1011.3 |
| 20260509225105 | 55 | 195 | 1.0 | 9.0 | 0.00 | 0.31 | 0.30 | 94 | 1011.3 |
| 20260509224604 | 55 | 214 | 1.0 | 3.0 | 0.00 | 0.31 | 0.30 | 94 | 1011.3 |
| 20260509223605 | 55 | 220 | 1.0 | 3.0 | 0.00 | 0.31 | 0.30 | 94 | 1011.1 |
| 20260509222105 | 55 | 280 | 1.0 | 3.0 | 0.01 | 0.31 | 0.30 | 94 | 1011.1 |
| 20260509221605 | 55 | 280 | 0.0 | 0.0 | 0.01 | 0.31 | 0.30 | 94 | 1011.2 |
| 20260509221105 | 55 | 280 | 0.0 | 0.0 | 0.01 | 0.31 | 0.30 | 94 | 1011.1 |
| 20260509220604 | 55 | 280 | 0.0 | 2.0 | 0.01 | 0.31 | 0.30 | 94 | 1011.2 |
| 20260509220104 | 55 | 280 | 0.0 | 2.0 | 0.01 | 0.31 | 0.30 | 94 | 1011.2 |
| 20260509215604 | 55 | 280 | 0.0 | 0.0 | 0.02 | 0.31 | 0.30 | 94 | 1011.4 |
| 20260509215104 | 55 | 280 | 0.0 | 3.0 | 0.02 | 0.31 | 0.30 | 94 | 1011.4 |
| 20260509214605 | 55 | 286 | 1.0 | 3.0 | 0.02 | 0.31 | 0.30 | 94 | 1011.5 |
| 20260509213605 | 55 | 290 | 1.0 | 3.0 | 0.04 | 0.31 | 0.30 | 94 | 1011.7 |
| 20260509213104 | 55 | 291 | 0.0 | 2.0 | 0.05 | 0.31 | 0.30 | 94 | 1011.6 |
| 20260509212605 | 55 | 291 | 1.0 | 3.0 | 0.04 | 0.30 | 0.29 | 93 | 1011.6 |
| 20260509212104 | 55 | 291 | 0.0 | 1.0 | 0.05 | 0.30 | 0.29 | 93 | 1011.6 |
| 20260509211605 | 55 | 291 | 1.0 | 2.0 | 0.05 | 0.30 | 0.29 | 93 | 1011.7 |
| 20260509211105 | 55 | 291 | 0.0 | 1.0 | 0.06 | 0.30 | 0.29 | 93 | 1011.7 |
| 20260509205604 | 55 | 291 | 0.0 | 3.0 | 0.05 | 0.29 | 0.28 | 93 | 1011.5 |
| 20260509205105 | 55 | 291 | 0.0 | 0.0 | 0.06 | 0.29 | 0.28 | 93 | 1011.6 |
| 20260509204604 | 55 | 291 | 0.0 | 0.0 | 0.06 | 0.29 | 0.28 | 93 | 1011.6 |
| 20260509204105 | 55 | 291 | 0.0 | 0.0 | 0.06 | 0.28 | 0.27 | 93 | 1011.6 |
| 20260509203604 | 55 | 291 | 0.0 | 0.0 | 0.05 | 0.27 | 0.26 | 93 | 1011.8 |
| 20260509202605 | 55 | 291 | 0.0 | 0.0 | 0.04 | 0.26 | 0.25 | 93 | 1011.9 |
| 20260509202106 | 55 | 291 | 0.0 | 0.0 | 0.04 | 0.25 | 0.24 | 93 | 1012.0 |
| 20260509201606 | 55 | 291 | 0.0 | 1.0 | 0.04 | 0.25 | 0.24 | 93 | 1012.1 |
| 20260509201106 | 55 | 291 | 0.0 | 0.0 | 0.03 | 0.24 | 0.23 | 93 | 1012.0 |
| 20260509200605 | 55 | 291 | 0.0 | 1.0 | 0.04 | 0.24 | 0.23 | 93 | 1012.1 |
| 20260509200105 | 55 | 291 | 0.0 | 2.0 | 0.04 | 0.24 | 0.23 | 93 | 1012.1 |
| 20260509194105 | 56 | 307 | 2.0 | 6.0 | 0.05 | 0.22 | 0.21 | 92 | 1012.3 |
| 20260509193605 | 56 | 305 | 2.0 | 6.0 | 0.06 | 0.22 | 0.21 | 92 | 1012.4 |
| 20260509193104 | 56 | 277 | 2.0 | 3.0 | 0.06 | 0.22 | 0.21 | 92 | 1012.4 |
| 20260509192104 | 56 | 240 | 0.0 | 3.0 | 0.05 | 0.21 | 0.20 | 92 | 1012.8 |
| 20260509191604 | 56 | 233 | 1.0 | 2.0 | 0.06 | 0.21 | 0.20 | 92 | 1012.9 |
| 20260509191105 | 56 | 229 | 1.0 | 3.0 | 0.06 | 0.21 | 0.20 | 92 | 1012.9 |
| 20260509190605 | 56 | 277 | 3.0 | 8.0 | 0.05 | 0.20 | 0.19 | 92 | 1013.0 |
| 20260509185104 | 57 | 322 | 4.0 | 9.0 | 0.08 | 0.18 | 0.17 | 92 | 1013.3 |
| 20260509184604 | 57 | 299 | 2.0 | 5.0 | 0.07 | 0.17 | 0.16 | 92 | 1013.4 |
| 20260509184104 | 57 | 311 | 1.0 | 9.0 | 0.08 | 0.17 | 0.16 | 91 | 1013.3 |
| 20260509183104 | 57 | 299 | 4.0 | 8.0 | 0.09 | 0.16 | 0.15 | 91 | 1013.2 |
| 20260509182605 | 57 | 324 | 5.0 | 10.0 | 0.09 | 0.16 | 0.15 | 91 | 1013.1 |
| 20260509182105 | 57 | 316 | 2.0 | 6.0 | 0.09 | 0.17 | 0.15 | 91 | 1013.0 |
| 20260509181606 | 57 | 9 | 0.0 | 3.0 | 0.08 | 0.16 | 0.14 | 91 | 1012.9 |
| 20260509181104 | 57 | 205 | 1.0 | 2.0 | 0.08 | 0.16 | 0.14 | 90 | 1012.8 |
| 20260509180605 | 57 | 191 | 1.0 | 3.0 | 0.08 | 0.16 | 0.14 | 89 | 1012.8 |
| 20260509180105 | 58 | 187 | 0.0 | 1.0 | 0.06 | 0.14 | 0.12 | 89 | 1012.7 |
| 20260509175604 | 58 | 184 | 0.0 | 0.0 | 0.04 | 0.12 | 0.10 | 89 | 1012.5 |
| 20260509175104 | 58 | 184 | 0.0 | 0.0 | 0.03 | 0.11 | 0.09 | 89 | 1012.3 |
| 20260509174604 | 58 | 184 | 0.0 | 0.0 | 0.03 | 0.11 | 0.09 | 88 | 1012.4 |
| 20260509174105 | 58 | 184 | 0.0 | 0.0 | 0.02 | 0.10 | 0.08 | 88 | 1012.3 |
| 20260509173105 | 58 | 184 | 0.0 | 0.0 | 0.00 | 0.08 | 0.06 | 88 | 1012.2 |
| 20260509172605 | 58 | 184 | 0.0 | 0.0 | 0.00 | 0.08 | 0.06 | 88 | 1012.2 |
| 20260509172106 | 58 | 184 | 0.0 | 1.0 | 0.00 | 0.08 | 0.06 | 88 | 1012.2 |
| 20260509171606 | 57 | 184 | 1.0 | 3.0 | 0.00 | 0.08 | 0.06 | 88 | 1012.3 |
| 20260509171105 | 57 | 184 | 1.0 | 3.0 | 0.00 | 0.08 | 0.06 | 89 | 1012.5 |
| 20260509170604 | 57 | 184 | 0.0 | 2.0 | 0.00 | 0.08 | 0.06 | 89 | 1012.5 |
| 20260509170104 | 57 | 184 | 2.0 | 5.0 | 0.00 | 0.08 | 0.06 | 90 | 1012.5 |
| 20260509165604 | 57 | 134 | 1.0 | 3.0 | 0.00 | 0.08 | 0.06 | 90 | 1012.6 |
| 20260509165105 | 57 | 134 | 2.0 | 6.0 | 0.01 | 0.08 | 0.06 | 90 | 1012.7 |
| 20260509164604 | 57 | 136 | 0.0 | 3.0 | 0.01 | 0.08 | 0.06 | 91 | 1012.7 |
| 20260509164105 | 57 | 140 | 2.0 | 5.0 | 0.01 | 0.08 | 0.06 | 91 | 1012.8 |
| 20260509163605 | 56 | 201 | 1.0 | 5.0 | 0.01 | 0.08 | 0.06 | 91 | 1013.0 |
| 20260509163105 | 56 | 201 | 3.0 | 6.0 | 0.01 | 0.08 | 0.06 | 91 | 1012.9 |
| 20260509162105 | 56 | 160 | 1.0 | 3.0 | 0.02 | 0.08 | 0.06 | 90 | 1012.9 |
| 20260509161604 | 56 | 138 | 1.0 | 3.0 | 0.02 | 0.08 | 0.06 | 90 | 1013.0 |
| 20260509161105 | 56 | 138 | 1.0 | 3.0 | 0.02 | 0.08 | 0.06 | 90 | 1013.2 |
| 20260509160604 | 55 | 138 | 0.0 | 1.0 | 0.02 | 0.08 | 0.06 | 90 | 1013.3 |
| 20260509160105 | 55 | 138 | 0.0 | 0.0 | 0.02 | 0.08 | 0.06 | 90 | 1013.4 |
| 20260509155105 | 55 | 138 | 1.0 | 2.0 | 0.01 | 0.07 | 0.05 | 90 | 1013.6 |
| 20260509154604 | 55 | 138 | 0.0 | 1.0 | 0.01 | 0.07 | 0.05 | 89 | 1013.7 |
| 20260509154105 | 55 | 138 | 0.0 | 3.0 | 0.01 | 0.07 | 0.05 | 90 | 1013.8 |
| 20260509153605 | 55 | 138 | 1.0 | 3.0 | 0.01 | 0.07 | 0.05 | 90 | 1013.8 |
| 20260509153105 | 55 | 141 | 0.0 | 1.0 | 0.01 | 0.07 | 0.05 | 89 | 1013.8 |
| 20260509152604 | 54 | 141 | 1.0 | 2.0 | 0.01 | 0.07 | 0.05 | 89 | 1014.0 |
| 20260509152106 | 54 | 141 | 1.0 | 3.0 | 0.00 | 0.06 | 0.04 | 89 | 1013.8 |
| 20260509151106 | 54 | 165 | 1.0 | 3.0 | 0.00 | 0.06 | 0.04 | 89 | 1013.8 |
| 20260509150605 | 55 | 161 | 1.0 | 3.0 | 0.00 | 0.06 | 0.04 | 89 | 1013.8 |
| 20260509150105 | 55 | 189 | 4.0 | 9.0 | 0.00 | 0.06 | 0.04 | 89 | 1013.6 |
| 20260509145606 | 55 | 144 | 2.0 | 7.0 | 0.00 | 0.06 | 0.04 | 89 | 1013.6 |
| 20260509144605 | 54 | 134 | 2.0 | 3.0 | 0.00 | 0.06 | 0.04 | 89 | 1013.6 |
| 20260509144106 | 54 | 134 | 0.0 | 3.0 | 0.00 | 0.06 | 0.04 | 89 | 1013.5 |
| 20260509142604 | 54 | 188 | 1.0 | 2.0 | 0.00 | 0.06 | 0.04 | 89 | 1013.5 |
| 20260509142104 | 54 | 188 | 2.0 | 5.0 | 0.00 | 0.06 | 0.04 | 90 | 1013.5 |
| 20260509141605 | 54 | 168 | 1.0 | 5.0 | 0.00 | 0.06 | 0.04 | 90 | 1013.5 |
| 20260509141104 | 54 | 195 | 1.0 | 6.0 | 0.00 | 0.06 | 0.04 | 90 | 1013.5 |
| 20260509140606 | 54 | 139 | 2.0 | 7.0 | 0.00 | 0.06 | 0.04 | 90 | 1013.6 |
| 20260509140105 | 53 | 201 | 4.0 | 7.0 | 0.00 | 0.06 | 0.04 | 90 | 1013.6 |
| 20260509135604 | 53 | 151 | 1.0 | 3.0 | 0.00 | 0.06 | 0.04 | 90 | 1013.6 |
| 20260509135104 | 53 | 180 | 2.0 | 3.0 | 0.00 | 0.06 | 0.04 | 91 | 1013.6 |
| 20260509134604 | 53 | 179 | 1.0 | 3.0 | 0.00 | 0.06 | 0.04 | 90 | 1013.8 |
| 20260509133604 | 53 | 179 | 2.0 | 3.0 | 0.00 | 0.06 | 0.04 | 90 | 1013.8 |
| 20260509133104 | 53 | 176 | 1.0 | 3.0 | 0.00 | 0.06 | 0.04 | 91 | 1013.7 |
| 20260509132604 | 53 | 176 | 0.0 | 1.0 | 0.00 | 0.06 | 0.04 | 91 | 1013.7 |
| 20260509132105 | 52 | 176 | 1.0 | 2.0 | 0.00 | 0.06 | 0.04 | 91 | 1013.8 |
| 20260509131604 | 52 | 176 | 1.0 | 2.0 | 0.00 | 0.06 | 0.04 | 92 | 1013.9 |
| 20260509131104 | 52 | 176 | 0.0 | 2.0 | 0.00 | 0.06 | 0.04 | 92 | 1014.0 |
| 20260509130604 | 51 | 181 | 0.0 | 3.0 | 0.00 | 0.06 | 0.04 | 92 | 1014.0 |
| 20260509130104 | 51 | 184 | 2.0 | 5.0 | 0.00 | 0.06 | 0.04 | 92 | 1014.1 |
| 20260509125605 | 51 | 126 | 0.0 | 0.0 | 0.00 | 0.06 | 0.04 | 92 | 1014.2 |
| 20260509124604 | 50 | 125 | 1.0 | 7.0 | 0.00 | 0.06 | 0.04 | 92 | 1014.0 |
| 20260509124104 | 50 | 90 | 1.0 | 3.0 | 0.00 | 0.06 | 0.04 | 92 | 1013.8 |
| 20260509123104 | 49 | 72 | 1.0 | 3.0 | 0.00 | 0.06 | 0.04 | 93 | 1013.7 |
| 20260509122605 | 49 | 67 | 2.0 | 5.0 | 0.00 | 0.06 | 0.04 | 93 | 1013.7 |
| 20260509122105 | 49 | 91 | 2.0 | 3.0 | 0.00 | 0.06 | 0.04 | 93 | 1013.8 |
| 20260509121604 | 48 | 92 | 1.0 | 3.0 | 0.00 | 0.06 | 0.04 | 92 | 1013.9 |
| 20260509121105 | 48 | 92 | 1.0 | 2.0 | 0.00 | 0.06 | 0.04 | 92 | 1014.0 |
| 20260509120604 | 48 | 92 | 0.0 | 2.0 | 0.00 | 0.06 | 0.04 | 93 | 1014.1 |
| 20260509120105 | 48 | 92 | 0.0 | 0.0 | 0.00 | 0.06 | 0.04 | 92 | 1014.3 |
| 20260509115604 | 48 | 92 | 0.0 | 1.0 | 0.00 | 0.06 | 0.04 | 92 | 1014.4 |
| 20260509115105 | 48 | 92 | 0.0 | 3.0 | 0.00 | 0.06 | 0.04 | 92 | 1014.4 |
| 20260509114604 | 48 | 92 | 2.0 | 3.0 | 0.00 | 0.06 | 0.04 | 92 | 1014.4 |
| 20260509114105 | 48 | 91 | 1.0 | 3.0 | 0.00 | 0.06 | 0.04 | 92 | 1014.3 |
| 20260509113604 | 48 | 91 | 0.0 | 2.0 | 0.00 | 0.06 | 0.04 | 92 | 1014.4 |
| 20260509113105 | 48 | 91 | 0.0 | 1.0 | 0.00 | 0.06 | 0.04 | 93 | 1014.4 |
| 20260509112606 | 47 | 91 | 0.0 | 1.0 | 0.00 | 0.06 | 0.04 | 93 | 1014.4 |
| 20260509112104 | 47 | 92 | 2.0 | 3.0 | 0.00 | 0.06 | 0.04 | 93 | 1014.4 |
| 20260509111104 | 47 | 92 | 0.0 | 2.0 | 0.00 | 0.06 | 0.04 | 92 | 1014.3 |
| 20260509110605 | 47 | 92 | 0.0 | 0.0 | 0.00 | 0.06 | 0.04 | 92 | 1014.2 |
| 20260509110104 | 47 | 92 | 0.0 | 0.0 | 0.00 | 0.06 | 0.04 | 93 | 1014.2 |
| 20260509105104 | 47 | 92 | 1.0 | 3.0 | 0.00 | 0.06 | 0.04 | 92 | 1014.2 |
| 20260509104605 | 47 | 92 | 1.0 | 3.0 | 0.00 | 0.06 | 0.04 | 93 | 1014.0 |
| 20260509104108 | 47 | 92 | 2.0 | 3.0 | 0.00 | 0.06 | 0.04 | 93 | 1014.1 |
| 20260509103605 | 47 | 92 | 0.0 | 2.0 | 0.00 | 0.06 | 0.04 | 92 | 1014.2 |
| 20260509103106 | 47 | 92 | 2.0 | 3.0 | 0.00 | 0.06 | 0.04 | 93 | 1014.2 |
| 20260509102606 | 47 | 99 | 1.0 | 5.0 | 0.00 | 0.06 | 0.04 | 92 | 1014.1 |
| 20260509101605 | 47 | 104 | 2.0 | 3.0 | 0.00 | 0.06 | 0.04 | 92 | 1014.2 |
| 20260509101104 | 47 | 113 | 0.0 | 5.0 | 0.00 | 0.06 | 0.04 | 93 | 1014.1 |
| 20260509100606 | 47 | 91 | 3.0 | 6.0 | 0.00 | 0.06 | 0.04 | 92 | 1014.2 |
| 20260509100104 | 47 | 125 | 1.0 | 5.0 | 0.00 | 0.06 | 0.04 | 92 | 1014.2 |
| 20260509095604 | 47 | 111 | 1.0 | 3.0 | 0.00 | 0.06 | 0.04 | 92 | 1014.3 |
| 20260509095104 | 47 | 111 | 1.0 | 3.0 | 0.00 | 0.06 | 0.04 | 92 | 1014.3 |
| 20260509094606 | 47 | 112 | 2.0 | 3.0 | 0.00 | 0.06 | 0.04 | 92 | 1014.4 |
| 20260509094104 | 48 | 113 | 2.0 | 5.0 | 0.00 | 0.06 | 0.04 | 92 | 1014.3 |
| 20260509093605 | 48 | 127 | 2.0 | 5.0 | 0.00 | 0.06 | 0.04 | 92 | 1014.2 |